Marshalltown, IA

10:17 PM CST on January 23, 2017 (GMT -0600)
Marshalltown Municipal

Weather History for KMIW - July, 2012

Change the Weather History Date:

Monday, July 9, 2012

  Actual Average Record
Temperature  
Mean Temperature 75 °F 73 °F  
Max Temperature 89 °F 84 °F 91 °F (2013)
Min Temperature 60 °F 62 °F 54 °F (2014)
Degree Days  
Heating Degree Days 0 0  
Month to date heating degree days 0 0  
Since 1 June heating degree days 11 28  
Since 1 July heating degree days 0 0  
Cooling Degree Days 10 8  
Month to date cooling degree days 157 72  
Year to date cooling degree days 533 285  
Since 1 June cooling degree days 397 235  
Growing Degree Days 24 (Base 50)    
Moisture  
Dew Point 62 °F    
Average Humidity 66    
Maximum Humidity 93    
Minimum Humidity 43    
Precipitation  
Precipitation T in 0.16 in 1.13 in (2003)
Month to date precipitation T 1.51  
Year to date precipitation 8.02  
Sea Level Pressure  
Sea Level Pressure 30.08 in    
Wind  
Wind Speed 5 mph (NNW)    
Max Wind Speed 16 mph    
Max Gust Speed 24 mph    
Visibility 10 miles    
Events Thunderstorm    
T = Trace of Precipitation, MM = Missing Value Source: NWS Daily Summary

Daily Weather History Graph

Daily Weather History Graph

Search for Another Location

Airport or City:

Trip Planner

Search our weather history database for the weather conditions in past years. The results will help you decide how hot, cold, wet, or windy it might be!

Date:

Astronomy

Jul. 09, 2012 Rise Set
Actual Time 5:44 AM CDT 8:48 PM CDT
Civil Twilight 5:10 AM CDT 9:22 PM CDT
Nautical Twilight 4:27 AM CDT 10:05 PM CDT
Astronomical Twilight 3:36 AM CDT 10:56 PM CDT
Moon 11:56 PM CDT (7/9) 12:20 PM CDT (7/9)
Length of Visible Light 16h 11m
Length of Day
15h 04m
Waning Gibbous, 63% of the Moon is Illuminated
Jul 9
Waning Gibbous
Jul 10
Last Quarter
Jul 18
New
Jul 26
First Quarter
Aug 1
Full

Hourly Weather History & Observations

Time (CDT) Temp. Heat Index Dew Point Humidity Pressure Visibility Wind Dir Wind Speed Gust Speed Precip Events Conditions
12:31 AM 64.4 °F - 60.8 °F 88% 30.10 in 10.0 mi WNW 3.5 mph - N/A   Partly Cloudy
12:53 AM 63.0 °F - 60.1 °F 90% 30.09 in 10.0 mi Calm Calm - N/A   Partly Cloudy
1:53 AM 64.0 °F - 60.1 °F 87% 30.09 in 10.0 mi NNW 6.9 mph - N/A   Clear
2:53 AM 64.0 °F - 60.1 °F 87% 30.09 in 10.0 mi Calm Calm - N/A   Clear
3:53 AM 62.1 °F - 60.1 °F 93% 30.09 in 10.0 mi WNW 3.5 mph - N/A   Clear
4:53 AM 60.1 °F - 57.9 °F 93% 30.09 in 10.0 mi WNW 4.6 mph - N/A   Clear
5:53 AM 60.1 °F - 57.9 °F 93% 30.09 in 10.0 mi Calm Calm - N/A   Clear
6:53 AM 63.0 °F - 60.1 °F 90% 30.10 in 10.0 mi Calm Calm - N/A   Clear
7:53 AM 70.0 °F - 63.0 °F 78% 30.10 in 10.0 mi Calm Calm - N/A   Clear
8:53 AM 77.0 °F - 66.0 °F 69% 30.10 in 10.0 mi Calm Calm - N/A   Clear
9:53 AM 82.9 °F 84.4 °F 64.0 °F 53% 30.09 in 10.0 mi NNW 4.6 mph - N/A   Clear
10:53 AM 86.0 °F 86.3 °F 62.1 °F 44% 30.09 in 10.0 mi NW 8.1 mph - N/A   Clear
11:53 AM 87.1 °F 87.5 °F 62.1 °F 43% 30.09 in 10.0 mi Variable 3.5 mph - N/A   Clear
12:53 PM 87.1 °F 88.9 °F 64.9 °F 48% 30.08 in 10.0 mi NNW 5.8 mph - N/A   Scattered Clouds
1:53 PM 86.0 °F 87.6 °F 64.9 °F 49% 30.06 in 10.0 mi NNW 16.1 mph 24.2 mph N/A   Mostly Cloudy
2:42 PM 82.4 °F 83.9 °F 64.4 °F 54% 30.09 in 10.0 mi NE 4.6 mph - 0.00 in Thunderstorm Scattered Clouds
2:53 PM 82.9 °F 85.4 °F 66.9 °F 58% 30.06 in 10.0 mi SSW 9.2 mph - 0.00 in Thunderstorm Partly Cloudy
3:01 PM 80.6 °F 82.7 °F 66.2 °F 61% 30.08 in 10.0 mi South 6.9 mph - N/A   Scattered Clouds
3:28 PM 78.8 °F - 68.0 °F 69% 30.09 in 10.0 mi South 8.1 mph - N/A Thunderstorm Overcast
3:43 PM 77.0 °F - 66.2 °F 69% 30.08 in 10.0 mi SSE 11.5 mph - N/A   Overcast
3:53 PM 81.0 °F 83.0 °F 66.0 °F 60% 30.07 in 10.0 mi South 9.2 mph - N/A   Mostly Cloudy
4:53 PM 84.0 °F 85.4 °F 64.0 °F 51% 30.06 in 10.0 mi Calm Calm - N/A   Clear
5:53 PM 87.1 °F 87.8 °F 63.0 °F 44% 30.04 in 10.0 mi North 9.2 mph - N/A   Clear
6:53 PM 84.9 °F 85.0 °F 61.0 °F 44% 30.04 in 10.0 mi North 11.5 mph - N/A   Clear
7:53 PM 81.0 °F 81.6 °F 60.1 °F 49% 30.04 in 10.0 mi North 6.9 mph - N/A   Clear
8:53 PM 75.0 °F - 60.1 °F 60% 30.04 in 10.0 mi North 8.1 mph - N/A   Clear
9:53 PM 73.9 °F - 55.0 °F 52% 30.06 in 10.0 mi North 10.4 mph - N/A   Clear
10:53 PM 69.1 °F - 55.9 °F 63% 30.07 in 10.0 mi North 8.1 mph - N/A   Clear
11:53 PM 66.9 °F - 55.9 °F 68% 30.07 in 10.0 mi North 8.1 mph - N/A   Clear